Location: Abraham Lincoln Continuation High School
(33.9711°N, 117.3662°W)
Time: 12:10:31
(UTC+00:00)

Lacrosse 5 - Pass Details

Date: 25 January 2021
Orbit: 715 x 724 km, 57.0° (Epoch: 03 March)

Event Time Altitude Azimuth Distance (km) Brightness Sun altitude
Rises 01:45:54 0° 325° (NW) 3,118 5.4 -7.3°
Reaches altitude 10° 01:48:21 10° 331° (NNW) 2,196 4.5 -7.8°
Maximum altitude 01:53:16 51° 47° (NE) 898 2.0 -8.8°
Drops below altitude 10° 01:58:10 10° 123° (ESE) 2,189 4.0 -9.7°
Sets 02:00:36 0° 129° (SE) 3,108 4.8 -10.2°
